Weather History for Beaufort MCAS, SC

Change the Weather History Date:

Friday, February 1, 2013

  Actual Average Record
Temperature  
Mean Temperature 48 °F -  
Max Temperature 59 °F 62 °F 52 °F (2014)
Min Temperature 36 °F 39 °F 44 °F (2014)
Degree Days  
Heating Degree Days 18    
Moisture  
Dew Point 21 °F    
Average Humidity 39    
Maximum Humidity 62    
Minimum Humidity 16    
Precipitation  
Precipitation 0.00 in - - ()
Sea Level Pressure  
Sea Level Pressure 30.26 in    
Wind  
Wind Speed 10 mph (WNW)    
Max Wind Speed 21 mph    
Max Gust Speed 33 mph    
Visibility 10 miles    
Events      
Averages and records for this station are not official NWS values.
T = Trace of Precipitation, MM = Missing Value Source: NWS Daily Summary

Daily Weather History Graph

Daily Weather History Graph

Search for Another Location

Airport:

Trip Planner

Search our weather history database for the weather conditions in past years. The results will help you decide how hot, cold, wet, or windy it might be!

Date:

Astronomy

Feb. 01, 2013 Rise Set
Actual Time 7:17 AM EST 5:56 PM EST
Civil Twilight 6:51 AM EST 6:22 PM EST
Nautical Twilight 6:21 AM EST 6:51 PM EST
Astronomical Twilight 5:53 AM EST 7:20 PM EST
Moon 11:37 PM EST (2/1) 10:12 AM EST (2/1)
Length of Visible Light 11h 30m
Length of Day
10h 39m
Waning Gibbous, 70% of the Moon is Illuminated
Feb 1
Waning Gibbous
Feb 3
Last Quarter
Feb 10
New
Feb 17
First Quarter
Feb 25
Full

Hourly Weather History & Observations

Time (EST) Temp. Windchill Dew Point Humidity Pressure Visibility Wind Dir Wind Speed Gust Speed Precip Events Conditions
12:56 AM 45.0 °F 41.2 °F 25.0 °F 46% 30.20 in 10.0 mi West 6.9 mph - N/A   Clear
1:56 AM 46.0 °F 41.9 °F 24.1 °F 42% 30.21 in 10.0 mi WNW 8.1 mph - N/A   Clear
2:56 AM 45.0 °F 40.1 °F 24.1 °F 44% 30.21 in 10.0 mi West 9.2 mph - N/A   Clear
3:56 AM 45.0 °F 39.7 °F 23.0 °F 42% 30.20 in 10.0 mi West 10.4 mph - N/A   Clear
4:56 AM 43.0 °F 37.2 °F 25.0 °F 49% 30.20 in 10.0 mi West 10.4 mph - N/A   Clear
5:56 AM 42.1 °F 35.7 °F 26.1 °F 53% 30.20 in 10.0 mi WSW 11.5 mph - N/A   Clear
6:56 AM 39.0 °F 32.3 °F 27.0 °F 62% 30.20 in 10.0 mi WSW 10.4 mph - N/A   Scattered Clouds
7:56 AM 42.1 °F 36.1 °F 27.0 °F 55% 30.22 in 10.0 mi WSW 10.4 mph - N/A   Scattered Clouds
8:56 AM 50.0 °F - 26.1 °F 39% 30.23 in 10.0 mi West 18.4 mph 24.2 mph N/A   Scattered Clouds
9:56 AM 53.1 °F - 27.0 °F 37% 30.24 in 10.0 mi West 17.3 mph 25.3 mph N/A   Mostly Cloudy
10:56 AM 55.0 °F - 28.9 °F 37% 30.25 in 10.0 mi WNW 15.0 mph 24.2 mph N/A   Mostly Cloudy
11:56 AM 57.9 °F - 27.0 °F 31% 30.24 in 10.0 mi WNW 20.7 mph 28.8 mph N/A   Mostly Cloudy
12:56 PM 57.9 °F - 21.9 °F 25% 30.23 in 10.0 mi WNW 17.3 mph 33.4 mph N/A   Scattered Clouds
1:56 PM 59.0 °F - 17.1 °F 20% 30.23 in 10.0 mi NW 15.0 mph 27.6 mph N/A   Clear
2:56 PM 59.0 °F - 15.1 °F 18% 30.23 in 10.0 mi NNW 13.8 mph 21.9 mph N/A   Clear
3:56 PM 57.0 °F - 10.9 °F 16% 30.24 in 10.0 mi NW 12.7 mph - N/A   Clear
4:56 PM 55.9 °F - 12.0 °F 18% 30.26 in 10.0 mi NNW 13.8 mph 19.6 mph N/A   Clear
5:56 PM 51.1 °F - 10.9 °F 20% 30.28 in 10.0 mi NNW 8.1 mph - N/A   Clear
6:56 PM 48.0 °F - 9.0 °F 21% 30.31 in 10.0 mi NNW 3.5 mph - N/A   Clear
7:56 PM 41.0 °F 38.0 °F 19.9 °F 43% 30.33 in 10.0 mi WNW 4.6 mph - N/A   Clear
8:56 PM 37.9 °F 35.5 °F 21.0 °F 51% 30.35 in 10.0 mi NW 3.5 mph - N/A   Clear
9:56 PM 37.0 °F 34.5 °F 25.0 °F 62% 30.35 in 10.0 mi North 3.5 mph - N/A   Clear
10:56 PM 36.0 °F - 21.0 °F 55% 30.37 in 10.0 mi Calm Calm - N/A   Clear
11:56 PM 36.0 °F 33.3 °F 19.0 °F 50% 30.37 in 10.0 mi North 3.5 mph - N/A   Clear